Wind_Speed
101 96 95 94 89 85 83 80 77 74 72 69 67 64 61 60 60 57 59 57 54 52 51 51 51 50 51 49 46 46 46 45 45 47 47 46 48 50 51 55 58 61 62 62 62 61 59
106 103 101 99 97 91 87 85 83 82 77 73 70 65 64 62 62 61 60 59 57 55 54 54 55 54 53 51 49 49 50 49 49 50 50 49 51 54 55 56 62 64 65 65 62 59 56
109 106 104 102 100 99 93 90 86 83 83 81 77 72 70 68 67 66 65 62 60 59 59 58 58 59 56 55 52 51 52 51 53 52 54 55 54 56 57 60 64 66 66 65 59 56 54
109 110 107 106 104 101 99 97 94 90 87 86 82 81 78 76 71 71 70 69 68 65 63 62 60 59 59 58 56 56 53 54 56 57 59 59 60 60 60 64 67 68 65 60 61 56 54
106 109 107 107 106 104 101 101 98 96 93 90 88 85 84 83 78 76 75 73 72 70 69 67 66 63 62 61 61 60 59 60 61 61 62 62 64 64 64 68 72 69 58 48 59 54 52
96 105 108 106 104 105 105 104 102 101 98 96 94 90 88 86 84 83 81 78 76 74 74 72 71 68 68 66 65 66 67 66 65 66 66 67 67 68 69 69 67 62 55 52 54 49 48
84 92 100 107 106 103 102 102 102 102 101 99 97 94 93 90 87 86 86 83 81 79 78 78 78 75 73 72 71 71 70 70 69 70 70 68 69 70 66 61 62 60 53 49 48 46 44
82 83 87 95 100 102 103 101 100 97 98 99 100 100 97 95 93 92 91 88 88 85 84 84 83 80 79 78 77 76 76 76 75 75 75 73 72 66 60 60 58 55 50 45 41 40 38
86 82 81 83 87 92 96 101 102 100 98 96 94 94 97 96 97 97 94 92 91 90 88 87 87 85 83 82 80 79 80 78 77 75 77 78 70 60 58 56 54 50 43 36 33 32 28
84 84 83 81 80 79 82 89 95 95 96 98 96 95 94 93 92 92 94 94 92 92 92 88 85 82 81 81 79 75 75 75 75 74 72 69 64 63 56 51 45 42 36 32 28 26 26
71 80 84 83 83 81 80 78 79 85 86 89 90 93 95 95 94 93 92 91 91 91 88 83 81 82 81 80 79 77 75 74 72 69 68 66 54 49 46 44 40 37 36 31 29 27 24
57 69 76 80 82 82 81 78 76 75 75 77 80 85 88 88 87 89 90 92 93 92 90 86 85 85 84 83 82 80 78 76 73 67 62 53 46 45 44 39 38 35 36 32 32 32 30
44 55 65 71 73 78 79 80 80 79 78 73 70 70 71 73 73 77 80 82 81 81 83 79 81 79 79 78 75 73 74 69 63 56 50 47 45 42 38 38 36 37 37 35 33 32 37
38 45 55 60 64 69 71 71 74 73 73 73 72 69 68 66 65 65 65 66 65 65 65 63 62 65 62 65 65 62 57 50 46 45 45 40 39 39 39 39 39 40 37 36 35 33 38
29 39 44 53 60 64 67 67 67 66 67 68 68 68 68 67 67 65 64 61 58 60 61 53 57 54 54 52 51 48 43 41 42 44 42 42 41 36 37 40 39 39 36 39 36 36 39
30 29 36 43 49 56 59 63 66 68 68 66 65 63 62 63 62 63 62 60 61 55 57 56 55 54 52 48 46 43 42 43 44 44 43 42 40 38 38 40 40 38 39 38 40 40 41
35 36 32 34 38 45 50 54 53 56 62 66 69 66 65 63 61 61 59 62 60 57 58 55 56 49 51 46 46 45 44 46 46 46 43 41 42 40 37 41 41 39 39 41 43 41 44
34 40 40 34 35 40 45 47 51 48 49 52 56 59 64 65 62 59 59 59 55 57 54 54 51 51 54 47 49 47 47 48 47 45 44 44 44 39 40 41 39 38 39 40 40 39 42
41 37 45 42 39 36 37 44 46 46 45 44 45 47 49 52 53 55 53 50 51 49 53 50 49 51 52 50 52 51 51 47 48 49 47 45 42 41 41 39 38 37 40 41 42 43 39
46 42 38 45 45 41 41 38 48 46 44 46 45 47 46 44 43 48 48 51 50 49 49 49 50 50 52 53 54 50 53 53 55 52 46 44 42 41 41 40 39 37 36 37 35 32 35
47 49 46 40 42 48 46 44 42 46 45 45 47 45 48 47 42 44 49 49 49 48 49 49 51 52 50 52 53 52 55 52 54 51 48 45 42 42 42 39 37 34 38 36 35 32 30
45 46 52 49 44 43 42 46 50 48 50 49 46 44 46 45 48 46 48 53 52 46 47 49 50 54 51 47 51 53 53 50 55 55 52 46 43 43 41 40 37 36 37 37 36 34 34
39 44 47 56 52 49 47 45 43 51 55 55 54 50 45 45 51 52 46 46 52 49 52 52 53 52 46 52 54 49 48 51 55 50 50 47 45 43 40 42 40 37 36 36 39 35 39
38 40 43 48 52 58 55 50 46 42 49 59 54 55 56 53 50 53 50 50 48 53 53 50 49 51 50 50 53 53 54 53 53 51 49 45 45 41 43 45 40 34 37 37 36 36 43
38 37 39 41 44 50 59 61 54 48 43 43 51 57 55 54 57 56 55 55 53 51 56 56 56 50 50 53 54 52 52 53 52 51 50 48 46 42 44 45 40 37 35 37 40 35 42
40 39 41 44 44 45 46 55 62 57 50 48 43 48 57 51 47 51 54 55 58 58 57 56 57 57 57 57 54 53 54 56 56 55 54 52 47 43 44 43 41 40 35 39 43 42 15
41 40 34 31 33 42 50 43 51 65 60 52 46 41 53 56 51 49 50 51 51 52 56 59 62 62 61 61 61 59 56 57 57 57 56 53 49 43 46 44 45 26 39 47 42 47 36
40 34 35 35 35 35 39 42 37 51 64 61 55 48 47 49 52 50 50 49 48 49 51 50 54 57 61 62 64 66 68 65 59 54 55 54 53 47 49 45 47 38 52 50 44 43 36
38 40 41 40 31 32 35 42 32 35 47 64 65 59 55 54 55 54 55 55 54 57 57 57 57 57 61 64 65 65 68 69 68 62 59 59 56 54 51 44 40 44 45 44 41 42 39
Wind_Direction
227 230 231 232 234 234 235 235 237 238 239 240 239 239 239 241 241 245 247 249 252 254 254 255 257 261 263 263 265 266 268 274 279 283 286 293 298 299 304 308 311 313 315 315 318 320 321
226 228 229 233 234 236 236 237 238 238 241 240 242 241 243 242 246 247 247 248 251 254 256 255 257 259 262 264 265 269 272 273 275 281 287 290 294 297 301 305 309 311 312 315 316 318 318
228 227 228 230 232 235 237 239 240 240 243 245 243 244 244 246 247 248 248 250 252 255 255 254 255 256 262 262 265 267 271 275 277 279 284 288 291 293 298 301 305 309 314 315 316 316 317
228 228 230 229 232 234 235 237 239 241 242 243 245 247 248 248 246 249 251 254 254 254 254 255 257 258 260 262 265 264 268 274 279 281 284 286 290 293 298 301 304 309 312 314 312 315 316
229 230 230 231 231 233 235 237 238 240 242 243 244 245 247 249 249 251 251 252 253 255 256 258 259 261 263 264 265 266 269 276 279 281 285 287 290 295 299 302 303 307 312 310 312 311 312
230 231 231 233 233 234 236 236 238 240 241 243 244 246 248 249 251 253 253 253 254 255 258 259 258 260 263 266 269 272 272 277 280 283 285 290 292 297 301 302 303 304 306 302 305 305 306
228 230 232 233 234 235 237 238 238 241 242 244 245 247 247 248 249 252 254 255 256 257 259 261 263 264 267 269 271 273 275 278 279 283 287 291 295 298 300 300 300 300 301 300 299 300 302
228 228 230 233 235 236 237 238 240 242 243 244 245 247 248 249 250 250 253 255 255 258 261 263 263 264 267 269 272 274 275 278 282 285 288 291 294 297 297 297 297 297 298 296 293 295 297
228 229 229 231 233 236 238 240 241 241 242 243 245 246 248 250 252 251 253 255 256 257 259 261 264 265 268 269 272 273 275 278 281 284 285 288 292 291 294 292 291 290 290 285 284 287 285
224 225 228 230 231 233 235 237 239 241 242 243 244 247 248 249 251 252 253 255 257 258 259 260 263 266 268 270 272 274 275 278 279 282 284 285 287 289 286 282 280 279 281 276 277 278 281
224 224 226 228 230 233 235 236 239 239 240 243 243 246 248 250 251 252 253 254 255 256 258 259 262 264 266 267 269 270 274 275 276 278 281 283 282 276 271 269 267 268 268 273 271 272 266
224 224 226 228 229 231 234 237 238 239 239 242 244 246 248 249 250 252 254 255 256 257 259 261 263 264 265 267 268 269 270 273 274 275 275 276 265 262 261 261 260 264 267 269 269 266 255
226 225 226 227 229 232 233 236 238 240 240 242 244 245 246 248 250 251 253 255 256 259 261 261 263 263 263 263 264 264 266 268 268 268 264 261 254 251 252 256 260 263 265 264 265 266 257
229 226 226 227 230 231 229 231 235 237 240 243 242 242 243 243 244 245 247 249 253 256 259 258 257 259 258 259 260 261 259 257 253 249 249 244 243 243 248 255 258 260 260 263 264 260 262
229 226 227 228 230 231 230 232 231 232 235 237 239 240 240 241 243 246 247 250 250 250 254 255 253 251 250 251 249 250 246 244 243 243 242 239 241 246 251 256 258 259 262 264 262 251 255
233 230 228 229 230 231 232 234 234 235 237 235 235 237 239 241 242 244 244 245 245 249 250 246 246 248 248 242 244 240 239 239 238 239 238 238 244 245 251 257 257 258 261 259 256 247 249
227 239 232 232 225 225 228 229 231 233 236 237 237 237 237 237 239 241 242 243 247 247 247 247 246 243 240 239 236 233 238 239 239 239 239 242 247 249 255 258 259 262 261 260 255 252 249
234 223 240 228 226 222 220 224 227 228 232 235 234 232 234 235 236 236 240 242 245 240 239 244 242 235 237 233 235 236 235 236 239 241 241 242 246 252 255 257 263 261 256 255 257 256 254
235 233 231 234 222 222 224 223 220 224 225 229 229 226 228 231 233 235 237 232 234 239 234 240 238 232 237 235 233 235 233 234 239 240 241 243 247 252 254 259 256 256 256 257 258 258 257
230 232 231 231 234 228 222 226 223 220 224 225 228 223 223 227 229 230 228 226 230 230 233 233 235 233 234 233 234 234 237 235 236 239 240 242 247 253 255 254 259 264 260 259 257 259 256
230 228 228 231 231 236 234 229 227 220 219 223 222 224 225 226 227 224 224 224 230 229 233 232 233 233 234 233 233 236 240 243 238 239 238 243 247 252 253 259 259 254 258 260 258 257 241
230 230 228 230 231 233 232 235 230 225 222 221 220 221 226 222 222 225 227 227 226 229 231 232 232 232 232 236 236 239 242 244 243 240 238 239 246 250 255 260 257 255 261 262 259 257 231
234 232 231 229 231 231 235 234 234 231 229 224 223 222 220 224 222 223 222 225 224 226 227 228 232 234 231 230 236 239 241 241 235 234 235 240 245 251 254 254 255 257 263 262 255 254 236
237 241 236 234 234 233 233 230 233 234 230 228 229 228 223 221 225 225 227 228 224 224 228 225 224 227 228 231 233 235 238 238 235 234 238 241 242 245 250 253 261 259 259 264 258 258 241
232 240 246 249 242 235 233 234 232 231 231 228 229 229 228 227 228 227 226 227 230 228 225 228 232 231 226 230 233 233 236 235 236 238 239 240 240 244 249 254 256 258 264 262 255 257 269
230 236 241 247 250 251 237 233 232 231 228 228 229 230 223 224 225 227 228 229 231 232 232 229 229 230 233 230 230 232 233 234 238 238 239 239 238 246 248 251 252 257 262 263 255 255 241
238 246 237 245 255 255 249 239 232 230 228 225 224 226 221 219 229 231 228 223 225 229 233 234 233 234 234 234 234 232 232 232 235 237 235 236 238 244 245 248 250 267 265 268 262 259 253
245 242 244 253 263 264 254 250 231 231 229 227 222 222 222 218 220 223 226 226 226 232 234 233 233 233 234 236 237 236 235 234 232 236 237 237 239 243 244 244 250 234 236 255 263 260 255
241 243 250 255 260 254 252 252 244 229 230 226 225 223 223 224 226 229 236 237 240 243 245 242 241 241 241 236 234 238 238 239 236 236 237 237 239 242 245 246 236 250 249 254 259 260 258
Height
10849 10858 10866 10874 10882 10891 10899 10906 10913 10918 10925 10931 10937 10943 10949 10955 10960 10964 10967 10971 10976 10979 10982 10986 10989 10992 10993 10997 11000 11001 11003 11005 11004 11003 11004 11005 11003 11002 11001 10997 10994 10992 10992 10992 10989 10985 10981
10832 10843 10853 10861 10869 10877 10886 10894 10901 10908 10913 10921 10928 10935 10941 10946 10951 10955 10959 10962 10966 10970 10974 10978 10981 10983 10986 10989 10992 10994 10995 10997 10998 10998 10998 11000 10998 10997 10996 10995 10988 10986 10985 10984 10981 10979 10976
10816 10826 10837 10847 10856 10865 10874 10882 10889 10896 10903 10908 10917 10923 10930 10935 10941 10944 10948 10952 10956 10961 10964 10969 10973 10975 10979 10981 10983 10986 10986 10987 10988 10991 10992 10991 10994 10992 10992 10989 10984 10981 10980 10973 10971 10969 10968
10799 10810 10820 10831 10842 10851 10859 10867 10875 10883 10890 10897 10904 10911 10918 10923 10930 10933 10937 10942 10946 10950 10953 10958 10963 10966 10969 10972 10974 10977 10979 10978 10978 10981 10982 10983 10984 10985 10986 10982 10976 10974 10973 10967 10959 10961 10959
10784 10795 10805 10815 10826 10836 10845 10854 10861 10869 10876 10884 10892 10898 10904 10910 10917 10921 10926 10930 10935 10939 10943 10948 10952 10957 10960 10963 10965 10968 10970 10971 10969 10972 10973 10974 10975 10975 10975 10972 10968 10968 10970 10956 10955 10954 10952
10768 10780 10790 10801 10811 10821 10830 10838 10846 10855 10862 10870 10878 10886 10892 10899 10904 10908 10912 10917 10923 10927 10932 10937 10941 10947 10950 10953 10956 10956 10958 10961 10961 10960 10962 10964 10965 10966 10965 10962 10958 10960 10960 10957 10951 10950 10946
10753 10763 10774 10785 10795 10805 10814 10823 10832 10840 10848 10856 10864 10871 10878 10885 10891 10896 10899 10904 10910 10916 10919 10924 10928 10935 10939 10942 10944 10946 10949 10950 10951 10949 10949 10954 10954 10957 10955 10951 10948 10950 10953 10949 10945 10941 10939
10738 10748 10759 10769 10779 10789 10799 10808 10817 10825 10834 10842 10850 10857 10864 10871 10878 10882 10887 10892 10895 10902 10905 10911 10916 10923 10928 10930 10933 10934 10938 10937 10939 10939 10936 10941 10945 10946 10943 10941 10939 10939 10941 10939 10936 10933 10931
10723 10733 10743 10753 10764 10773 10783 10792 10801 10810 10818 10827 10834 10842 10849 10856 10861 10868 10874 10879 10883 10888 10894 10899 10902 10910 10916 10918 10920 10923 10925 10926 10927 10928 10929 10930 10933 10934 10934 10930 10930 10930 10931 10930 10929 10926 10925
10705 10717 10728 10738 10748 10757 10766 10775 10784 10792 10801 10810 10817 10825 10833 10841 10848 10852 10860 10863 10868 10873 10880 10886 10893 10900 10901 10905 10908 10911 10912 10915 10916 10917 10919 10921 10922 10921 10923 10922 10922 10922 10924 10922 10923 10921 10920
10691 10701 10712 10722 10732 10741 10751 10760 10768 10776 10783 10792 10801 10808 10817 10825 10830 10840 10843 10850 10854 10857 10865 10877 10884 10884 10888 10891 10895 10898 10901 10902 10904 10907 10908 10910 10913 10911 10912 10913 10914 10916 10914 10917 10917 10916 10915
10679 10687 10697 10708 10717 10727 10736 10746 10753 10761 10769 10777 10785 10794 10802 10809 10815 10821 10828 10833 10837 10844 10851 10864 10866 10869 10872 10875 10879 10886 10888 10890 10893 10895 10896 10902 10901 10902 10903 10907 10906 10910 10909 10913 10911 10909 10909
10670 10677 10684 10693 10703 10712 10721 10729 10737 10746 10755 10763 10772 10780 10787 10794 10802 10805 10812 10816 10822 10832 10838 10846 10847 10852 10855 10861 10865 10870 10874 10877 10879 10882 10885 10889 10890 10894 10897 10897 10900 10900 10903 10904 10904 10903 10901
10662 10667 10674 10682 10689 10696 10705 10714 10724 10733 10741 10750 10759 10766 10773 10780 10786 10792 10797 10802 10813 10816 10823 10832 10830 10834 10839 10845 10851 10857 10860 10863 10867 10869 10874 10880 10883 10885 10888 10889 10892 10892 10895 10895 10895 10897 10894
10655 10659 10664 10670 10676 10684 10692 10701 10711 10720 10728 10736 10745 10752 10760 10767 10773 10779 10785 10794 10800 10800 10807 10821 10817 10821 10827 10834 10837 10845 10849 10851 10856 10859 10866 10871 10872 10879 10880 10879 10884 10885 10888 10886 10889 10888 10887
10650 10652 10656 10661 10667 10673 10680 10688 10697 10706 10713 10722 10730 10738 10746 10752 10759 10766 10774 10781 10782 10793 10795 10802 10806 10811 10816 10823 10829 10834 10838 10841 10845 10850 10856 10862 10865 10870 10872 10872 10874 10877 10877 10879 10879 10879 10882
10641 10646 10649 10654 10658 10663 10669 10677 10684 10692 10698 10706 10714 10723 10731 10739 10746 10755 10762 10763 10771 10778 10782 10790 10793 10803 10804 10814 10820 10824 10829 10830 10835 10841 10848 10853 10854 10859 10865 10864 10864 10867 10869 10868 10868 10872 10873
10634 10637 10641 10646 10650 10655 10660 10667 10674 10681 10687 10692 10700 10710 10716 10724 10734 10740 10746 10752 10763 10762 10770 10775 10785 10789 10794 10805 10809 10812 10817 10820 10827 10833 10839 10841 10844 10852 10854 10855 10856 10857 10857 10859 10859 10863 10863
10625 10629 10633 10637 10642 10647 10653 10659 10665 10672 10678 10683 10691 10697 10705 10712 10720 10727 10735 10741 10744 10754 10760 10766 10772 10779 10787 10794 10797 10801 10805 10812 10818 10821 10825 10832 10837 10841 10843 10848 10845 10847 10848 10850 10852 10853 10858
10615 10620 10624 10628 10634 10639 10645 10651 10657 10663 10669 10675 10682 10688 10696 10703 10711 10715 10723 10729 10736 10743 10750 10755 10761 10771 10776 10780 10785 10792 10795 10803 10804 10809 10818 10821 10828 10832 10834 10835 10835 10838 10840 10841 10843 10847 10850
10603 10609 10614 10619 10624 10630 10636 10642 10648 10654 10660 10666 10672 10680 10685 10692 10700 10707 10712 10720 10724 10732 10738 10746 10752 10758 10763 10770 10776 10781 10783 10791 10794 10801 10807 10812 10819 10821 10822 10827 10828 10829 10829 10832 10835 10839 10842
10591 10597 10604 10608 10613 10619 10625 10631 10637 10644 10650 10656 10663 10670 10675 10684 10689 10695 10701 10707 10714 10722 10729 10733 10739 10745 10753 10761 10764 10767 10773 10781 10785 10792 10796 10802 10808 10810 10813 10816 10819 10820 10821 10824 10826 10830 10834
10580 10585 10590 10595 10600 10606 10613 10620 10625 10631 10639 10644 10651 10658 10664 10673 10677 10683 10690 10698 10704 10712 10715 10720 10728 10736 10745 10746 10753 10761 10769 10771 10769 10781 10785 10793 10798 10801 10805 10805 10809 10813 10813 10815 10816 10821 10825
10569 10574 10579 10583 10587 10594 10600 10605 10612 10618 10623 10631 10639 10646 10653 10659 10665 10671 10682 10685 10691 10698 10704 10711 10717 10722 10732 10739 10740 10747 10752 10757 10762 10769 10776 10784 10788 10792 10793 10793 10800 10805 10805 10805 10808 10810 10815
10560 10565 10568 10571 10574 10579 10586 10594 10601 10606 10612 10618 10625 10632 10639 10647 10654 10660 10667 10674 10680 10685 10690 10698 10703 10714 10718 10722 10729 10736 10742 10748 10753 10758 10764 10771 10777 10781 10783 10786 10792 10795 10797 10797 10796 10803 10809
10549 10553 10557 10559 10563 10566 10571 10578 10586 10594 10601 10607 10612 10617 10625 10634 10642 10647 10652 10660 10666 10673 10681 10684 10694 10698 10706 10711 10715 10726 10731 10737 10742 10746 10751 10758 10765 10770 10775 10778 10781 10785 10791 10788 10786 10789 10801
10538 10542 10546 10549 10551 10554 10558 10564 10570 10578 10587 10595 10601 10605 10612 10622 10628 10636 10642 10646 10651 10659 10665 10674 10680 10686 10692 10698 10705 10712 10717 10722 10728 10733 10739 10746 10752 10760 10762 10768 10771 10785 10776 10776 10776 10776 10793
10526 10531 10535 10539 10541 10543 10546 10550 10556 10563 10572 10581 10589 10596 10603 10610 10617 10624 10630 10636 10642 10648 10653 10663 10664 10670 10677 10685 10691 10694 10700 10705 10714 10722 10730 10735 10739 10747 10751 10759 10760 10782 10775 10772 10769 10769 10775
10514 10520 10524 10528 10531 10533 10536 10539 10543 10549 10556 10565 10575 10584 10591 10600 10606 10613 10618 10623 10630 10634 10639 10644 10651 10659 10664 10667 10673 10684 10686 10696 10704 10711 10716 10719 10727 10732 10740 10750 10759 10759 10761 10758 10758 10758 10761